Time,TemperatureF,DewpointF,PressureIn,WindDirection,WindDirectionDegrees,WindSpeedMPH,WindSpeedGustMPH,Humidity,HourlyPrecipIn,Conditions,Clouds,dailyrainin,SolarRadiationWatts/m^2,SoftwareType,DateUTC
2013-04-13 00:02:00,21.0,18.0,-100.00,NNE,17,3.0,9.0,89,0.00,,,0.28,0.000000,,2013-04-13 05:02:00,
2013-04-13 00:32:00,21.0,18.0,-100.00,North,6,3.0,7.0,89,0.00,,,0.28,0.000000,,2013-04-13 05:32:00,
2013-04-13 00:43:00,21.0,18.0,-100.00,North,6,3.0,7.0,89,0.00,,,0.28,0.000000,,2013-04-13 05:43:00,
2013-04-13 00:52:00,21.0,18.0,-100.00,North,6,3.0,7.0,89,0.00,,,0.28,0.000000,,2013-04-13 05:52:00,
2013-04-13 01:02:00,21.0,18.0,-100.00,North,6,3.0,7.0,89,0.00,,,0.28,0.000000,,2013-04-13 06:02:00,
2013-04-13 01:04:00,20.0,18.0,-100.00,North,349,3.0,6.0,90,0.00,,,0.28,0.000000,,2013-04-13 06:04:00,
2013-04-13 01:24:00,20.0,18.0,-100.00,North,349,3.0,6.0,90,0.00,,,0.28,0.000000,,2013-04-13 06:24:00,
2013-04-13 01:36:00,20.0,18.0,-100.00,North,349,3.0,6.0,90,0.00,,,0.28,0.000000,,2013-04-13 06:36:00,
2013-04-13 01:49:00,20.0,18.0,-100.00,North,349,3.0,6.0,90,0.00,,,0.28,0.000000,,2013-04-13 06:49:00,
2013-04-13 01:55:00,20.0,18.0,-100.00,North,349,3.0,6.0,90,0.00,,,0.28,0.000000,,2013-04-13 06:55:00,
2013-04-13 02:04:00,20.0,18.0,-100.00,NNW,343,4.0,6.0,90,0.00,,,0.28,0.000000,,2013-04-13 07:04:00,
2013-04-13 02:25:00,20.0,18.0,-100.00,NNW,343,4.0,6.0,90,0.00,,,0.28,0.000000,,2013-04-13 07:25:00,
2013-04-13 02:35:00,20.0,18.0,-100.00,NNW,343,4.0,6.0,90,0.00,,,0.28,0.000000,,2013-04-13 07:35:00,
2013-04-13 02:45:00,20.0,18.0,-100.00,NNW,343,4.0,6.0,90,0.00,,,0.28,0.000000,,2013-04-13 07:45:00,
2013-04-13 02:56:00,20.0,18.0,-100.00,NNW,343,4.0,6.0,90,0.00,,,0.28,0.000000,,2013-04-13 07:56:00,
2013-04-13 03:04:00,20.0,18.0,-100.00,North,349,4.0,7.0,90,0.00,,,0.28,0.000000,,2013-04-13 08:04:00,
2013-04-13 03:26:00,20.0,18.0,-100.00,North,349,4.0,7.0,90,0.00,,,0.28,0.000000,,2013-04-13 08:26:00,
2013-04-13 03:35:00,20.0,18.0,-100.00,North,349,4.0,7.0,90,0.00,,,0.28,0.000000,,2013-04-13 08:35:00,
2013-04-13 03:46:00,20.0,18.0,-100.00,North,349,4.0,7.0,90,0.00,,,0.28,0.000000,,2013-04-13 08:46:00,
2013-04-13 03:54:00,20.0,18.0,-100.00,North,349,4.0,7.0,90,0.00,,,0.28,0.000000,,2013-04-13 08:54:00,
2013-04-13 04:04:00,20.0,18.0,-100.00,North,353,4.0,7.0,90,0.00,,,0.28,0.000000,,2013-04-13 09:04:00,
2013-04-13 04:38:00,20.0,18.0,-100.00,North,353,4.0,7.0,90,0.00,,,0.28,0.000000,,2013-04-13 09:38:00,
2013-04-13 04:53:00,20.0,18.0,-100.00,North,353,4.0,7.0,90,0.00,,,0.28,0.000000,,2013-04-13 09:53:00,
2013-04-13 05:04:00,20.0,18.0,-100.00,North,9,4.0,9.0,90,0.00,,,0.28,0.000000,,2013-04-13 10:04:00,
2013-04-13 05:25:00,20.0,18.0,-100.00,North,9,4.0,9.0,90,0.00,,,0.28,0.000000,,2013-04-13 10:25:00,
2013-04-13 05:38:00,20.0,18.0,-100.00,North,9,4.0,9.0,90,0.00,,,0.28,0.000000,,2013-04-13 10:38:00,
2013-04-13 05:50:00,20.0,18.0,-100.00,North,9,4.0,9.0,90,0.00,,,0.28,0.000000,,2013-04-13 10:50:00,
2013-04-13 05:55:00,20.0,18.0,-100.00,North,9,4.0,9.0,90,0.00,,,0.28,0.000000,,2013-04-13 10:55:00,
2013-04-13 06:04:00,20.0,18.0,-100.00,NNE,14,4.0,8.0,90,0.00,,,0.28,0.000000,,2013-04-13 11:04:00,
2013-04-13 06:24:00,20.0,18.0,-100.00,NNE,14,4.0,8.0,90,0.00,,,0.28,0.000000,,2013-04-13 11:24:00,
2013-04-13 06:35:00,20.0,18.0,-100.00,NNE,14,4.0,8.0,90,0.00,,,0.28,0.000000,,2013-04-13 11:35:00,
2013-04-13 06:45:00,20.0,18.0,-100.00,NNE,14,4.0,8.0,90,0.00,,,0.28,0.000000,,2013-04-13 11:45:00,
2013-04-13 06:54:00,20.0,18.0,-100.00,NNE,14,4.0,8.0,90,0.00,,,0.28,0.000000,,2013-04-13 11:54:00,
2013-04-13 07:04:00,21.0,19.0,-100.00,North,5,3.0,7.0,90,0.00,,,0.28,7.000000,,2013-04-13 12:04:00,
2013-04-13 07:37:00,21.0,19.0,-100.00,North,5,3.0,7.0,90,0.00,,,0.28,7.000000,,2013-04-13 12:37:00,
2013-04-13 07:48:00,21.0,19.0,-100.00,North,5,3.0,7.0,90,0.00,,,0.28,7.000000,,2013-04-13 12:48:00,
2013-04-13 07:55:00,21.0,19.0,-100.00,North,5,3.0,7.0,90,0.00,,,0.28,7.000000,,2013-04-13 12:55:00,
2013-04-13 08:04:00,23.0,19.0,-100.00,NNE,18,4.0,8.0,86,0.00,,,0.28,55.000000,,2013-04-13 13:04:00,
2013-04-13 08:30:00,23.0,19.0,-100.00,NNE,18,4.0,8.0,86,0.00,,,0.28,55.000000,,2013-04-13 13:30:00,
2013-04-13 08:36:00,23.0,19.0,-100.00,NNE,18,4.0,8.0,86,0.00,,,0.28,55.000000,,2013-04-13 13:36:00,
2013-04-13 08:49:00,23.0,19.0,-100.00,NNE,18,4.0,8.0,86,0.00,,,0.28,55.000000,,2013-04-13 13:49:00,
2013-04-13 08:56:00,23.0,19.0,-100.00,NNE,18,4.0,8.0,86,0.00,,,0.28,55.000000,,2013-04-13 13:56:00,
2013-04-13 09:04:00,24.0,19.0,-100.00,NNE,30,4.0,11.0,81,0.00,,,0.28,91.000000,,2013-04-13 14:04:00,
2013-04-13 09:24:00,24.0,19.0,-100.00,NNE,30,4.0,11.0,81,0.00,,,0.28,91.000000,,2013-04-13 14:24:00,
2013-04-13 09:39:00,24.0,19.0,-100.00,NNE,30,4.0,11.0,81,0.00,,,0.28,91.000000,,2013-04-13 14:39:00,
2013-04-13 09:48:00,24.0,19.0,-100.00,NNE,30,4.0,11.0,81,0.00,,,0.28,91.000000,,2013-04-13 14:48:00,
2013-04-13 09:59:00,24.0,19.0,-100.00,NNE,30,4.0,11.0,81,0.00,,,0.28,91.000000,,2013-04-13 14:59:00,
2013-04-13 10:04:00,26.0,19.0,-100.00,NE,49,4.0,9.0,76,0.00,,,0.28,124.000000,,2013-04-13 15:04:00,
2013-04-13 10:37:00,26.0,19.0,-100.00,NE,49,4.0,9.0,76,0.00,,,0.28,124.000000,,2013-04-13 15:37:00,
2013-04-13 10:45:00,26.0,19.0,-100.00,NE,49,4.0,9.0,76,0.00,,,0.28,124.000000,,2013-04-13 15:45:00,
2013-04-13 10:58:00,26.0,19.0,-100.00,NE,49,4.0,9.0,76,0.00,,,0.28,124.000000,,2013-04-13 15:58:00,
2013-04-13 11:04:00,28.0,20.0,-100.00,NE,56,5.0,9.0,70,0.01,,,0.29,204.000000,,2013-04-13 16:04:00,
2013-04-13 11:36:00,28.0,20.0,-100.00,NE,56,5.0,9.0,70,0.01,,,0.29,204.000000,,2013-04-13 16:36:00,
2013-04-13 11:48:00,28.0,20.0,-100.00,NE,56,5.0,9.0,70,0.01,,,0.29,204.000000,,2013-04-13 16:48:00,
2013-04-13 11:56:00,28.0,20.0,-100.00,NE,56,5.0,9.0,70,0.01,,,0.29,204.000000,,2013-04-13 16:56:00,
2013-04-13 12:04:00,30.0,19.0,-100.00,North,354,5.0,10.0,64,0.06,,,0.35,453.000000,,2013-04-13 17:04:00,
2013-04-13 12:38:00,30.0,19.0,-100.00,North,354,5.0,10.0,64,0.06,,,0.35,453.000000,,2013-04-13 17:38:00,
2013-04-13 12:45:00,30.0,19.0,-100.00,North,354,5.0,10.0,64,0.06,,,0.35,453.000000,,2013-04-13 17:45:00,
2013-04-13 13:03:00,30.0,19.0,-100.00,North,354,5.0,10.0,64,0.06,,,0.35,453.000000,,2013-04-13 18:03:00,
2013-04-13 13:33:00,33.0,21.0,-100.00,North,0,4.0,11.0,61,0.03,,,0.28,477.000000,,2013-04-13 18:33:00,
2013-04-13 13:42:00,33.0,21.0,-100.00,North,0,4.0,11.0,61,0.03,,,0.28,477.000000,,2013-04-13 18:42:00,
2013-04-13 13:53:00,33.0,21.0,-100.00,North,0,4.0,11.0,61,0.03,,,0.28,477.000000,,2013-04-13 18:53:00,
2013-04-13 14:03:00,33.0,21.0,-100.00,North,0,4.0,11.0,61,0.03,,,0.28,477.000000,,2013-04-13 19:03:00,
2013-04-13 14:33:00,33.0,21.0,-100.00,North,0,4.0,12.0,61,0.02,,,0.18,420.000000,,2013-04-13 19:33:00,
2013-04-13 14:42:00,33.0,21.0,-100.00,North,0,4.0,12.0,61,0.02,,,0.18,420.000000,,2013-04-13 19:42:00,
2013-04-13 14:53:00,33.0,21.0,-100.00,North,0,4.0,12.0,61,0.02,,,0.18,420.000000,,2013-04-13 19:53:00,
2013-04-13 15:02:00,33.0,21.0,-100.00,North,0,4.0,12.0,61,0.02,,,0.18,420.000000,,2013-04-13 20:02:00,
2013-04-13 15:32:00,36.0,22.0,-100.00,East,87,4.0,9.0,56,0.00,,,0.14,482.000000,,2013-04-13 20:32:00,
2013-04-13 15:42:00,36.0,22.0,-100.00,East,87,4.0,9.0,56,0.00,,,0.14,482.000000,,2013-04-13 20:42:00,
2013-04-13 15:52:00,36.0,22.0,-100.00,East,87,4.0,9.0,56,0.00,,,0.14,482.000000,,2013-04-13 20:52:00,
2013-04-13 16:02:00,36.0,22.0,-100.00,East,87,4.0,9.0,56,0.00,,,0.14,482.000000,,2013-04-13 21:02:00,
2013-04-13 16:22:00,37.0,20.0,-100.00,North,349,5.0,11.0,49,0.00,,,0.13,484.000000,,2013-04-13 21:22:00,
2013-04-13 16:33:00,37.0,20.0,-100.00,North,349,5.0,11.0,49,0.00,,,0.13,484.000000,,2013-04-13 21:33:00,
2013-04-13 16:43:00,37.0,20.0,-100.00,North,349,5.0,11.0,49,0.00,,,0.13,484.000000,,2013-04-13 21:43:00,
2013-04-13 16:53:00,37.0,20.0,-100.00,North,349,5.0,11.0,49,0.00,,,0.13,484.000000,,2013-04-13 21:53:00,
2013-04-13 17:03:00,37.0,20.0,-100.00,North,349,5.0,11.0,49,0.00,,,0.13,484.000000,,2013-04-13 22:03:00,
2013-04-13 17:33:00,33.0,18.0,-100.00,NNE,33,4.0,8.0,53,0.00,,,0.12,292.000000,,2013-04-13 22:33:00,
2013-04-13 17:42:00,33.0,18.0,-100.00,NNE,33,4.0,8.0,53,0.00,,,0.12,292.000000,,2013-04-13 22:42:00,
2013-04-13 17:53:00,33.0,18.0,-100.00,NNE,33,4.0,8.0,53,0.00,,,0.12,292.000000,,2013-04-13 22:53:00,
2013-04-13 18:02:00,33.0,18.0,-100.00,NNE,33,4.0,8.0,53,0.00,,,0.12,292.000000,,2013-04-13 23:02:00,
2013-04-13 18:33:00,35.0,19.0,-100.00,NNE,16,3.0,7.0,51,0.00,,,0.12,259.000000,,2013-04-13 23:33:00,
2013-04-13 18:43:00,35.0,19.0,-100.00,NNE,16,3.0,7.0,51,0.00,,,0.12,259.000000,,2013-04-13 23:43:00,
2013-04-13 18:53:00,35.0,19.0,-100.00,NNE,16,3.0,7.0,51,0.00,,,0.12,259.000000,,2013-04-13 23:53:00,
2013-04-13 19:02:00,35.0,19.0,-100.00,NNE,16,3.0,7.0,51,0.00,,,0.12,259.000000,,2013-04-14 00:02:00,
2013-04-13 19:22:00,33.0,20.0,-100.00,North,0,2.0,9.0,58,0.00,,,0.12,142.000000,,2013-04-14 00:22:00,
2013-04-13 19:32:00,33.0,20.0,-100.00,North,0,2.0,9.0,58,0.00,,,0.12,142.000000,,2013-04-14 00:32:00,
2013-04-13 19:42:00,33.0,20.0,-100.00,North,0,2.0,9.0,58,0.00,,,0.12,142.000000,,2013-04-14 00:42:00,
2013-04-13 19:52:00,33.0,20.0,-100.00,North,0,2.0,9.0,58,0.00,,,0.12,142.000000,,2013-04-14 00:52:00,
2013-04-13 20:02:00,33.0,20.0,-100.00,North,0,2.0,9.0,58,0.00,,,0.12,142.000000,,2013-04-14 01:02:00,
2013-04-13 20:33:00,28.0,18.0,-100.00,NW,317,0.0,3.0,67,0.00,,,0.12,25.000000,,2013-04-14 01:33:00,
2013-04-13 20:42:00,28.0,18.0,-100.00,NW,317,0.0,3.0,67,0.00,,,0.12,25.000000,,2013-04-14 01:42:00,
2013-04-13 20:53:00,28.0,18.0,-100.00,NW,317,0.0,3.0,67,0.00,,,0.12,25.000000,,2013-04-14 01:53:00,
2013-04-13 21:02:00,28.0,18.0,-100.00,NW,317,0.0,3.0,67,0.00,,,0.12,25.000000,,2013-04-14 02:02:00,
2013-04-13 21:22:00,26.0,18.0,-100.00,NW,308,2.0,2.0,70,0.00,,,0.12,0.000000,,2013-04-14 02:22:00,
2013-04-13 21:33:00,26.0,18.0,-100.00,NW,308,2.0,2.0,70,0.00,,,0.12,0.000000,,2013-04-14 02:33:00,
2013-04-13 21:43:00,26.0,18.0,-100.00,NW,308,2.0,2.0,70,0.00,,,0.12,0.000000,,2013-04-14 02:43:00,
2013-04-13 21:53:00,26.0,18.0,-100.00,NW,308,2.0,2.0,70,0.00,,,0.12,0.000000,,2013-04-14 02:53:00,
2013-04-13 22:02:00,26.0,18.0,-100.00,NW,308,2.0,2.0,70,0.00,,,0.12,0.000000,,2013-04-14 03:02:00,
2013-04-13 22:22:00,25.0,20.0,-100.00,WSW,252,3.0,4.0,82,0.00,,,0.12,0.000000,,2013-04-14 03:22:00,
2013-04-13 22:33:00,25.0,20.0,-100.00,WSW,252,3.0,4.0,82,0.00,,,0.12,0.000000,,2013-04-14 03:33:00,
2013-04-13 22:43:00,25.0,20.0,-100.00,WSW,252,3.0,4.0,82,0.00,,,0.12,0.000000,,2013-04-14 03:43:00,
2013-04-13 22:53:00,25.0,20.0,-100.00,WSW,252,3.0,4.0,82,0.00,,,0.12,0.000000,,2013-04-14 03:53:00,
2013-04-13 23:02:00,25.0,20.0,-100.00,WSW,252,3.0,4.0,82,0.00,,,0.12,0.000000,,2013-04-14 04:02:00,
2013-04-13 23:23:00,22.0,19.0,-100.00,West,268,3.0,5.0,87,0.00,,,0.12,0.000000,,2013-04-14 04:23:00,
2013-04-13 23:33:00,22.0,19.0,-100.00,West,268,3.0,5.0,87,0.00,,,0.12,0.000000,,2013-04-14 04:33:00,
2013-04-13 23:43:00,22.0,19.0,-100.00,West,268,3.0,5.0,87,0.00,,,0.12,0.000000,,2013-04-14 04:43:00,
2013-04-13 23:52:00,22.0,19.0,-100.00,West,268,3.0,5.0,87,0.00,,,0.12,0.000000,,2013-04-14 04:52:00,